Date String (YYYY-MM-DD hh:mm:ss) UTC,Instrument flags,Ambient pressure (hPa),Sample flow (lpm),Bypass flow (lpm),Sample temperature (°C),Ambient temperature (°C),ASC tube jacket temperature (°C),LED temperature (°C),Box temperature (°C),Sample RH (%),Span deviation,Mass concentration (μg/m³),Mass concentration (μg/m³),Mass concentration (μg/m³)
DateTimeUTC,F1_M11,P_M11,Q1_M11,Q2_M11,T1_M11,T2_M11,T3_M11,T4_M11,T5_M11,U1_M11,ZSPAN_M11,X0_M11,X2_M11,X1_M11
2022-10-07 06:00:00,,0837.1,4.99,0.00,30.2,28.7,00.0,39.0,32.0,22.2,0001.6,0030.89,0017.93,0015.08
2022-10-07 06:01:00,,0837.1,5.00,0.00,30.2,28.7,00.0,39.0,32.0,22.2,0001.6,0031.02,0018.01,0015.17
2022-10-07 06:02:00,,0837.1,5.01,0.00,30.2,28.7,00.0,39.0,32.0,22.2,0001.4,0031.69,0018.06,0015.25
2022-10-07 06:03:00,,0837.1,5.00,0.00,30.2,28.7,00.0,39.0,32.0,22.2,0001.5,0032.56,0018.16,0015.32
2022-10-07 06:04:00,,0837.1,4.99,0.00,30.2,28.7,00.0,39.0,32.0,22.2,0001.5,0033.32,0018.25,0015.36
2022-10-07 06:05:00,,0837.1,5.01,0.00,30.2,28.7,00.0,39.0,32.0,22.3,0001.4,0033.64,0018.28,0015.42
2022-10-07 06:06:00,,0837.1,5.01,0.00,30.2,28.7,00.0,39.0,32.0,22.3,0001.4,0034.12,0018.35,0015.49
2022-10-07 06:07:00,,0837.1,4.99,0.00,30.2,28.7,00.0,39.0,32.0,22.3,0001.5,0034.16,0018.42,0015.56
2022-10-07 06:08:00,,0837.1,5.01,0.00,30.2,28.7,00.0,39.0,32.0,22.3,0001.5,0034.16,0018.52,0015.63
2022-10-07 06:09:00,,0837.1,5.01,0.00,30.2,28.7,00.0,39.0,32.0,22.3,0001.4,0034.26,0018.59,0015.71
2022-10-07 06:10:00,,0837.1,5.00,0.00,30.2,28.7,00.0,39.0,32.0,22.3,0001.5,0035.13,0018.57,0015.76
2022-10-07 06:11:00,,0837.1,4.99,0.00,30.2,28.7,00.0,39.0,32.0,22.3,0001.6,0034.78,0018.60,0015.78
2022-10-07 06:12:00,,0837.1,5.00,0.00,30.2,28.7,00.0,39.0,32.0,22.4,0001.3,0034.74,0018.62,0015.81
2022-10-07 06:13:00,,0837.1,5.01,0.00,30.2,28.7,00.0,39.0,32.0,22.4,0001.4,0034.30,0018.69,0015.84
2022-10-07 06:14:00,,0837.1,5.00,0.00,30.2,28.7,00.0,39.0,32.0,22.4,0001.4,0034.18,0018.77,0015.89
2022-10-07 06:15:00,,0837.1,5.00,0.00,30.2,28.7,00.0,39.0,32.0,22.4,0001.5,0033.69,0018.89,0015.95
2022-10-07 06:16:00,,0837.2,5.00,0.00,30.2,28.7,00.0,39.0,32.0,22.4,0001.5,0032.71,0018.93,0015.96
2022-10-07 06:17:00,,0837.1,5.01,0.00,30.2,28.7,00.0,39.0,32.0,22.4,0001.3,0032.49,0018.95,0015.98
2022-10-07 06:18:00,,0837.1,5.00,0.00,30.2,28.7,00.0,39.0,32.0,22.5,0001.3,0032.89,0018.96,0015.99
2022-10-07 06:19:00,,0837.1,4.99,0.00,30.2,28.7,00.0,39.0,32.0,22.5,0001.3,0033.61,0019.00,0016.01
2022-10-07 06:20:00,,0837.1,5.00,0.00,30.2,28.7,00.0,39.0,32.0,22.5,0001.4,0033.30,0019.02,0016.05
2022-10-07 06:21:00,,0837.1,5.00,0.00,30.2,28.7,00.0,39.0,32.0,22.5,0001.2,0032.67,0019.06,0016.07
2022-10-07 06:22:00,,0837.1,5.00,0.00,30.2,28.7,00.0,39.0,32.0,22.5,0001.3,0033.61,0019.20,0016.12
2022-10-07 06:23:00,,0837.1,5.00,0.00,30.2,28.7,00.0,39.0,32.0,22.5,0001.5,0034.03,0019.19,0016.17
2022-10-07 06:24:00,,0837.1,5.00,0.00,30.2,28.7,00.0,39.0,32.0,22.4,0001.2,0034.49,0019.10,0016.21
2022-10-07 06:25:00,,0837.1,5.01,0.00,30.2,28.7,00.0,39.0,32.0,22.4,0001.1,0035.37,0019.07,0016.24
2022-10-07 06:26:00,,0837.2,5.00,0.00,30.2,28.7,00.0,39.0,32.0,22.4,0000.9,0035.82,0019.08,0016.29
2022-10-07 06:27:00,,0837.1,4.99,0.00,30.2,28.7,00.0,39.0,32.0,22.4,0000.9,0036.36,0019.17,0016.35
2022-10-07 06:28:00,,0837.1,5.00,0.00,30.2,28.7,00.0,39.0,32.0,22.3,0001.2,0036.09,0019.23,0016.41
2022-10-07 06:29:00,,0837.1,5.01,0.00,30.2,28.7,00.0,39.0,32.0,22.3,0001.3,0036.39,0019.27,0016.47
2022-10-07 06:30:00,,0837.2,4.99,0.00,30.2,28.7,00.0,39.0,32.0,22.4,0001.3,0035.86,0019.18,0016.47
2022-10-07 06:31:00,,0837.2,4.99,0.00,30.2,28.7,00.0,39.0,32.0,22.4,0001.5,0035.92,0019.16,0016.45
2022-10-07 06:32:00,,0837.2,5.00,0.00,30.2,28.7,00.0,39.0,32.0,22.4,0001.7,0034.99,0019.16,0016.48
2022-10-07 06:33:00,,0837.2,5.01,0.00,30.2,28.7,00.0,39.0,32.0,22.4,0001.5,0034.37,0019.11,0016.48
2022-10-07 06:34:00,,0837.2,5.00,0.00,30.2,28.7,00.0,39.0,32.0,22.5,0001.3,0033.51,0019.10,0016.48
2022-10-07 06:35:00,,0837.1,4.99,0.00,30.2,28.7,00.0,39.0,32.0,22.5,0001.4,0032.55,0019.20,0016.46
2022-10-07 06:36:00,,0837.1,5.01,0.00,30.2,28.6,00.0,39.0,32.0,22.4,0001.5,0031.35,0019.23,0016.44
2022-10-07 06:37:00,,0837.1,5.01,0.00,30.2,28.6,00.0,39.0,32.0,22.4,0001.3,0031.00,0019.23,0016.42
2022-10-07 06:38:00,,0837.1,5.00,0.00,30.2,28.6,00.0,38.9,32.0,22.4,0001.2,0030.90,0019.20,0016.40
2022-10-07 06:39:00,,0837.2,5.00,0.00,30.2,28.6,00.0,39.0,32.0,22.4,0001.4,0031.39,0019.19,0016.37
2022-10-07 06:40:00,,0837.2,5.01,0.00,30.2,28.6,00.0,39.0,32.0,22.4,0001.2,0030.74,0019.19,0016.38
2022-10-07 06:41:00,,0837.1,5.00,0.00,30.2,28.6,00.0,39.0,32.0,22.4,0000.9,0030.28,0019.29,0016.40
2022-10-07 06:42:00,,0837.2,4.99,0.00,30.2,28.6,00.0,38.9,32.0,22.4,0000.5,0030.19,0019.36,0016.40
2022-10-07 06:43:00,,0837.2,5.00,0.00,30.1,28.6,00.0,38.9,31.9,22.4,0000.1,0030.57,0019.34,0016.37
2022-10-07 06:44:00,,0837.2,5.01,0.00,30.1,28.6,00.0,38.9,31.9,22.4,0000.2,0030.19,0019.27,0016.34
2022-10-07 06:45:00,,0837.1,4.99,0.00,30.1,28.6,00.0,38.9,31.9,22.4,0000.5,0030.54,0019.20,0016.33
2022-10-07 06:46:00,,0837.2,5.01,0.00,30.1,28.6,00.0,38.9,31.9,22.4,0000.6,0030.74,0019.18,0016.34
2022-10-07 06:47:00,,0837.2,5.00,0.00,30.1,28.6,00.0,38.9,31.9,22.4,0000.4,0030.36,0019.13,0016.33
2022-10-07 06:48:00,,0837.2,4.99,0.00,30.1,28.6,00.0,38.9,31.9,22.4,0000.4,0030.01,0019.06,0016.30
2022-10-07 06:49:00,,0837.2,5.00,0.00,30.1,28.5,00.0,38.9,31.9,22.4,0000.3,0029.66,0019.00,0016.32
2022-10-07 06:50:00,,0837.2,5.00,0.00,30.1,28.5,00.0,38.9,31.9,22.4,0000.0,0029.58,0019.01,0016.34
2022-10-07 06:51:00,,0837.1,5.00,0.00,30.1,28.6,00.0,38.9,31.9,22.4,-000.0,0029.53,0019.00,0016.32
2022-10-07 06:52:00,,0837.2,5.00,0.00,30.1,28.6,00.0,38.9,31.9,22.4,0000.1,0029.73,0018.95,0016.33
2022-10-07 06:53:00,,0837.1,5.00,0.00,30.1,28.5,00.0,38.9,31.9,22.4,0000.4,0030.21,0018.86,0016.33
2022-10-07 06:54:00,,0837.1,5.01,0.00,30.1,28.5,00.0,38.9,31.9,22.3,0000.8,0030.28,0018.89,0016.37
2022-10-07 06:55:00,,0837.1,5.01,0.00,30.1,28.5,00.0,38.9,31.9,22.3,0000.7,0030.27,0018.93,0016.39
2022-10-07 06:56:00,,0837.1,4.99,0.00,30.1,28.5,00.0,38.9,31.9,22.3,0000.5,0029.93,0018.99,0016.42
2022-10-07 06:57:00,,0837.1,5.01,0.00,30.1,28.5,00.0,38.9,31.9,22.3,0000.6,0030.28,0019.02,0016.43
2022-10-07 06:58:00,,0837.1,5.01,0.00,30.1,28.5,00.0,38.9,31.9,22.2,0000.7,0031.25,0019.14,0016.48
2022-10-07 06:59:00,,0837.1,5.00,0.00,30.1,28.5,00.0,38.9,31.9,22.1,0001.1,0031.80,0019.23,0016.57
